Location: Antioch
(38.0049°N, 121.8058°W)
Time: 03:26:11
(UTC+00:00)

Cosmos 2208 Rocket - Pass Details

Date: 22 May 2026
Orbit: 751 x 800 km, 74.0° (Epoch: 9 June)

Event Time Altitude Azimuth Distance (km) Brightness Sun altitude
Exits shadow 08:02:09 30° 60° (ENE) 1,361 5.4 -31.6°
Drops below altitude 10° 08:05:14 10° 34° (NE) 2,311 7.1 -31.6°
Sets 08:07:43 0° 27° (NNE) 3,233 8.1 -31.6°
